Location: Newark
(39.6172°N, 96.8533°W)
Time: 21:58:52
(UTC+00:00)

Altair - Visible Passes

Search period start: 25 February 2020 00:00
Search period end: 06 March 2020 00:00
Orbit: 1502 x 1682 km, 47.2° (Epoch: 25 February)

Date Brightness Start Highest point End Pass type
(mag) Time Alt. Az. Time Alt. Az. Time Alt. Az.
25 Feb 9.7 07:10:49 11° ENE 07:10:49 11° ENE 07:11:09 10° ENE visible
25 Feb 8.1 09:08:50 50° NNE 09:08:50 50° NNE 09:16:41 10° ENE visible
25 Feb 7.8 11:06:50 26° WNW 11:13:00 67° NNE 11:23:03 10° ESE visible
26 Feb 8.4 08:44:55 42° NE 08:44:55 42° NE 08:51:22 10° ENE visible
26 Feb 7.8 10:42:56 34° NW 10:47:45 65° NNE 10:57:44 10° E visible
27 Feb 8.7 08:21:02 33° NE 08:21:02 33° NE 08:26:05 10° ENE visible
27 Feb 7.8 10:19:03 43° NW 10:22:28 63° NNE 10:32:24 10° E visible
27 Feb 7.7 12:17:52 10° WNW 12:27:37 69° SW 12:37:37 10° SE visible
28 Feb 9.0 07:57:11 25° ENE 07:57:11 25° ENE 08:00:48 10° ENE visible
28 Feb 7.8 09:55:11 52° NNW 09:57:12 61° NNE 10:07:04 10° E visible
28 Feb 7.6 11:53:12 12° WNW 12:02:26 74° SW 12:12:29 10° SE visible
29 Feb 9.3 07:33:22 18° ENE 07:33:22 18° ENE 07:35:31 10° ENE visible
29 Feb 7.8 09:31:23 59° N 09:31:55 59° NNE 09:41:44 10° E visible
29 Feb 7.6 11:29:24 18° WNW 11:37:15 78° SW 11:47:19 10° SE visible
01 Mar 9.6 07:09:36 12° ENE 07:09:36 12° ENE 07:10:14 10° ENE visible
01 Mar 7.9 09:07:37 56° NNE 09:07:37 56° NNE 09:16:24 10° E visible
01 Mar 7.5 11:05:38 25° WNW 11:12:04 82° SSW 11:22:09 10° SE visible
02 Mar 9.1 02:21:42 10° SSE 02:22:27 12° SSE 02:22:27 12° SSE visible
02 Mar 8.2 08:43:55 46° NE 08:43:55 46° NE 08:51:04 10° E visible
02 Mar 7.5 10:41:57 35° WNW 10:46:52 87° SSW 10:56:56 10° SE visible
03 Mar 8.9 01:57:24 10° SSE 01:59:40 14° SE 01:59:40 14° SE visible
03 Mar 9.2 03:56:24 10° SW 03:57:47 16° SW 03:57:47 16° SW visible
03 Mar 8.6 08:20:18 35° ENE 08:20:18 35° ENE 08:25:44 10° E visible
03 Mar 7.4 10:18:20 49° WNW 10:21:40 89° NNE 10:31:43 10° ESE visible
03 Mar 8.2 12:17:18 10° WNW 12:25:48 35° SW 12:34:31 10° SSE visible
04 Mar 8.8 01:33:18 10° SSE 01:36:55 13° SE 01:36:55 13° SE visible
04 Mar 8.6 03:31:24 10° SSW 03:35:02 27° SSW 03:35:02 27° SSW visible
04 Mar 9.0 07:56:46 25° ENE 07:56:46 25° ENE 08:00:24 10° E visible
04 Mar 7.4 09:54:49 67° NW 09:56:27 85° NNE 10:06:29 10° ESE visible
04 Mar 8.1 11:52:51 13° WNW 12:00:42 38° SW 12:09:38 10° SSE visible
05 Mar 8.8 01:09:38 10° SE 01:12:13 11° ESE 01:14:13 11° ESE visible
05 Mar 8.0 03:06:26 10° SSW 03:12:19 40° S 03:12:19 40° S visible
05 Mar 9.4 07:33:20 17° ENE 07:33:20 17° ENE 07:35:04 10° E visible
05 Mar 7.4 09:31:23 81° NE 09:31:23 81° NE 09:41:14 10° ESE visible
05 Mar 8.0 11:29:27 20° WNW 11:35:35 41° SW 11:44:43 10° SSE visible
